[[{"header":{"parameterUnit":"m.s-1","parameterCategory":1,"la1":30.2991,"la2":30.254,"lo1":-89.0895,"lo2":-89.0444,"dy":0.0017,"dx":0.0017,"nx":28,"ny":28,"refTime":"2025-03-14T21:00:00:Z","depth":0,"parameterNumber":2,"parameterNumberName":"U-component_of_WINDS"},"data":[0,0,0,0,0,0,0,0,0,0,0,0,0,0,0,0,0,0,0,0,0,0,0,0,0,0,0,0,0,0,0,0,0,0,0,0,0,0,0,0,0,0,0,0,0,0,0,0,0,0,0,0,0,0,0,0,0,0,4.3023,4.3024,0,4.3145,4.3146,4.3147,4.309,4.3087,4.3083,4.3081,4.321,4.3216,4.3222,0,0,0,0,0,0,0,0,0,0,0,0,0,4.2744,4.2749,4.3023,4.3024,4.3026,4.3144,4.3146,4.3148,4.309,4.3086,4.3083,4.3079,4.3208,4.3215,4.3223,0,0,0,0,0,0,0,0,0,0,0,0,0,4.2865,4.2751,4.3022,4.3011,4.3011,4.3144,4.3146,4.3148,4.3091,4.3086,4.3082,4.3077,4.3205,4.3215,4.3224,4.3376,0,0,4.3253,4.3257,0,0,0,0,0,0,0,0,4.2858,4.2876,4.3011,4.3012,4.3013,4.3097,4.3095,4.3225,4.3092,4.3061,4.308,4.3075,4.3176,4.3188,4.3221,4.3382,4.3388,4.3254,4.326,4.3264,4.3266,0,0,0,0,0,0,0,4.285,4.287,4.3071,4.3013,4.3014,4.3001,4.3013,4.3119,4.3144,4.3063,4.3059,4.3074,4.3176,4.3212,4.3224,4.339,4.3254,4.3262,4.3268,4.3272,4.3681,4.3686,0,0,0,0,0,0,4.2842,4.2863,4.3067,4.3075,4.2922,4.301,4.3024,4.3075,4.3142,4.3148,4.3078,4.3071,4.3198,4.3213,4.3228,4.341,4.3264,4.3273,4.3278,4.3676,4.3682,4.3687,0,0,0,0,0,0,4.2836,4.286,4.3062,4.2968,4.2993,4.302,4.3078,4.308,4.3116,4.3153,4.3158,4.3111,4.3195,4.3215,4.3339,4.3413,4.3277,4.3285,4.3669,4.3677,4.3685,4.3774,0,0,0,0,0,0,4.2828,4.2858,4.2916,4.297,4.2998,4.317,4.3082,4.3085,4.3132,4.3124,4.3185,4.3191,4.3193,4.3325,4.3349,4.3424,4.3293,4.3663,4.3673,4.3682,4.3765,4.3784,4.3801,0,0,0,0,0,4.2818,4.2937,4.2919,4.2944,4.307,4.3175,4.3191,4.319,4.3138,4.3196,4.322,4.3189,4.3402,4.3339,4.3364,4.3444,4.3658,4.367,4.3681,4.3757,4.378,4.38,0,0,0,0,0,0,4.2893,4.2944,4.2924,4.3064,4.3115,4.3165,4.3238,4.3215,4.3283,4.3273,4.327,4.3285,4.3413,4.3441,4.337,4.3594,4.3522,4.354,4.3571,4.3593,4.3611,4.3601,4.3301,0,0,0,0,0,4.2925,4.3005,4.3046,4.3166,4.3192,4.3211,4.3257,4.3251,4.3305,4.3326,4.336,4.3414,4.3493,4.3545,4.362,4.3769,4.3781,4.3837,4.3854,4.3869,4.3884,4.3964,4.3988,4.3725,4.3725,4.3725,0,0,4.2994,4.3032,4.3082,4.3181,4.322,4.3304,4.3229,4.3321,4.3383,4.3341,4.3459,4.3486,4.3546,4.3683,4.3746,4.3711,4.3959,4.3884,4.3895,4.3902,4.3978,4.4003,4.4025,4.3733,4.3732,4.3731,0,0,4.316,4.3197,4.33,4.334,4.34,4.3411,4.3436,4.3489,4.3505,4.3623,4.3593,4.3668,4.3804,4.3848,4.3888,4.4071,4.4045,4.4096,4.4189,4.4267,4.4288,4.4306,4.4371,4.4394,4.4111,4.4111,4.4111,0,4.3238,4.336,4.3356,4.3449,4.3494,4.3459,4.3563,4.3603,4.3685,4.3717,4.3676,4.3846,4.3884,4.403,4.4075,4.4109,4.4138,4.4088,4.4285,4.4304,4.4321,4.4382,4.4406,4.4117,4.4116,4.4116,4.4115,0,4.3452,4.3538,4.3614,4.3692,4.3745,4.3844,4.3856,4.3911,4.3901,4.3917,4.4039,4.4084,4.4166,4.4201,4.4194,4.4347,4.4323,4.4285,4.4212,4.4351,4.4409,4.4432,4.4125,4.4123,4.4121,4.412,0,0,4.3668,4.3741,4.3769,4.3804,4.3867,4.3934,4.4031,4.4111,4.4157,4.4216,4.4297,4.4413,4.4377,4.4423,4.442,4.4489,4.463,4.4442,4.4443,4.4474,4.48,4.4827,4.4854,4.4613,4.4618,4.4621,4.4795,0,4.3837,4.4006,4.4005,4.4161,4.424,4.4208,4.4293,4.4341,4.4359,4.443,4.4451,4.4532,4.448,4.4507,4.4574,4.4599,4.4695,4.4586,4.4689,4.4693,4.4673,4.4885,4.4914,4.5075,4.4817,4.4821,4.4824,0,4.4057,4.412,4.4284,4.4334,4.4367,4.4443,4.4516,4.4584,4.4639,4.4647,4.4698,4.4685,4.4785,4.471,4.4848,4.4774,4.4816,4.4835,4.4841,4.4849,4.4765,4.4897,4.5127,4.515,4.4859,4.4856,4.4854,0,4.4196,4.4322,4.4436,4.4466,4.4529,4.4583,4.4612,4.4662,4.471,4.4774,4.4804,4.488,4.4922,4.4981,4.4989,4.4934,4.5127,4.5054,4.5137,4.5137,4.5177,4.5174,4.5415,4.5208,4.5208,4.5207,4.5207,0,4.4384,4.4485,4.4498,4.4568,4.4681,4.468,4.4791,4.4816,4.4861,4.4935,4.4914,4.4984,4.4991,4.5064,4.5072,4.5184,4.5204,4.5213,4.5214,4.5214,4.5213,4.524,4.5229,4.5214,4.5212,4.5211,4.521,0,4.4557,4.457,4.4691,4.4741,4.4755,4.4836,4.4878,4.4945,4.4962,4.5056,4.5079,4.5105,4.519,4.5204,4.5305,4.5309,4.5443,4.5433,4.5424,4.5422,4.5504,4.5495,4.5769,4.5805,4.5576,4.5578,4.558,0,4.4675,4.4751,4.4808,4.4856,4.4887,4.4964,4.5012,4.5015,4.5066,4.5134,4.5193,4.5276,4.5342,4.548,4.5508,4.5585,4.5576,4.5667,4.5587,4.5585,4.5575,4.5569,4.5577,4.5681,4.5684,4.5686,4.5687,0,4.4882,4.4885,4.4954,4.5026,4.5083,4.5141,4.5195,4.5236,4.5245,4.5304,4.539,4.5441,4.5543,4.5626,4.5702,4.5733,4.5712,4.5713,4.5735,4.5736,4.5726,4.5731,4.5464,4.5706,4.5704,4.5703,4.5702,4.5701,4.503,4.5096,4.5146,4.5224,4.5264,4.5315,4.538,4.5404,4.5475,4.5557,4.5555,4.565,4.5703,4.5803,4.5839,4.5914,4.5884,4.5918,4.5926,4.5934,4.5941,4.5716,4.5928,4.5927,4.5927,4.5927,4.5926,0,4.5234,4.5265,4.5337,4.5412,4.5473,4.5448,4.5506,4.556,4.5642,4.5693,4.5758,4.5857,4.5937,4.5972,4.605,4.6103,4.6095,4.6123,4.6119,4.6126,4.5964,4.5935,4.6128,4.6128,4.6128,4.6128,4.6128,4.6128,4.5348,4.5458,4.5467,4.5597,4.5627,4.5718,4.5753,4.58,4.584,4.5951,4.6017,4.6038,4.6083,4.6165,4.6237,4.6245,4.6275,4.6307,4.6311,4.6158,4.6137,4.6118,4.6091,4.6314,4.6314,4.6466,4.6468,4.6469]},{"header":{"parameterUnit":"m.s-1","parameterCategory":1,"la1":30.2991,"la2":30.254,"lo1":-89.0895,"lo2":-89.0444,"dy":0.0017,"dx":0.0017,"nx":28,"ny":28,"refTime":"2025-03-14T21:00:00:Z","depth":0,"parameterNumber":3,"parameterNumberName":"V-component_of_WINDS"},"data":[0,0,0,0,0,0,0,0,0,0,0,0,0,0,0,0,0,0,0,0,0,0,0,0,0,0,0,0,0,0,0,0,0,0,0,0,0,0,0,0,0,0,0,0,0,0,0,0,0,0,0,0,0,0,0,0,0,0,2.5008,2.501,0,2.5147,2.5149,2.515,2.5152,2.515,2.5148,2.5146,2.5289,2.5294,2.5299,0,0,0,0,0,0,0,0,0,0,0,0,0,2.4743,2.4747,2.5008,2.501,2.5011,2.5147,2.5149,2.5151,2.5152,2.515,2.5148,2.5146,2.5287,2.5293,2.53,0,0,0,0,0,0,0,0,0,0,0,0,0,2.4867,2.4749,2.5008,2.5028,2.5032,2.5147,2.5149,2.5151,2.5152,2.515,2.5147,2.5145,2.5285,2.5293,2.5301,2.5404,0,0,2.5325,2.5329,0,0,0,0,0,0,0,0,2.486,2.4877,2.5024,2.5027,2.5031,2.5129,2.5107,2.5236,2.5153,2.5107,2.5146,2.5143,2.5238,2.5249,2.5281,2.5411,2.5417,2.5326,2.5331,2.5335,2.5337,0,0,0,0,0,0,0,2.4852,2.4871,2.5063,2.5026,2.503,2.503,2.5045,2.5132,2.5185,2.511,2.5111,2.5127,2.5239,2.5274,2.5285,2.5419,2.5326,2.5333,2.5338,2.5341,2.564,2.5643,0,0,0,0,0,0,2.4839,2.4864,2.5059,2.5067,2.4937,2.5037,2.5054,2.51,2.5184,2.5195,2.5129,2.5127,2.5261,2.5275,2.529,2.5417,2.5335,2.5342,2.5347,2.5637,2.564,2.5644,0,0,0,0,0,0,2.4833,2.4856,2.5053,2.4966,2.4991,2.5045,2.5097,2.5105,2.5139,2.5199,2.5208,2.5155,2.5259,2.5278,2.5376,2.5422,2.5346,2.5353,2.5633,2.5638,2.5642,2.5671,0,0,0,0,0,0,2.4826,2.4854,2.4894,2.4967,2.4995,2.5137,2.51,2.5109,2.5153,2.5151,2.5225,2.5235,2.5259,2.5363,2.5384,2.5431,2.536,2.5629,2.5635,2.5641,2.5666,2.5676,2.5684,0,0,0,0,0,2.4816,2.4897,2.4896,2.492,2.5047,2.5139,2.5156,2.5182,2.5157,2.5198,2.5236,2.5232,2.5413,2.5373,2.5396,2.5447,2.5627,2.5634,2.564,2.5662,2.5674,2.5684,0,0,0,0,0,0,2.4829,2.4907,2.4907,2.5014,2.507,2.514,2.5192,2.5194,2.5259,2.5254,2.5283,2.53,2.5397,2.5432,2.5386,2.5552,2.5517,2.5528,2.5526,2.5537,2.5546,2.5536,2.5366,0,0,0,0,0,2.4844,2.4913,2.4977,2.5065,2.5093,2.5137,2.5179,2.5194,2.5254,2.5277,2.5323,2.538,2.545,2.5496,2.5563,2.5671,2.5687,2.5717,2.5726,2.5733,2.5743,2.5803,2.5817,2.5666,2.5666,2.5666,0,0,2.4876,2.4927,2.4969,2.5069,2.5114,2.5185,2.5158,2.5233,2.5286,2.5289,2.5384,2.5419,2.5485,2.5588,2.5636,2.562,2.5788,2.5742,2.5747,2.5754,2.5812,2.5826,2.5838,2.5671,2.567,2.5669,0,0,2.497,2.5016,2.5094,2.514,2.5209,2.5238,2.5257,2.5326,2.535,2.5445,2.5449,2.5512,2.5631,2.5678,2.5718,2.583,2.5829,2.5851,2.5898,2.5956,2.5968,2.5979,2.6019,2.6033,2.586,2.586,2.586,0,2.5002,2.5108,2.5134,2.5211,2.5254,2.526,2.5339,2.5382,2.547,2.55,2.5481,2.5631,2.5676,2.579,2.5817,2.5849,2.5871,2.5843,2.5964,2.5975,2.5986,2.6025,2.604,2.5862,2.5862,2.5862,2.5862,0,2.5143,2.5217,2.5272,2.5357,2.5407,2.5484,2.5521,2.5569,2.5579,2.561,2.5707,2.5761,2.584,2.5868,2.5879,2.5984,2.5972,2.5958,2.5924,2.6002,2.6039,2.6054,2.5866,2.5865,2.5864,2.5864,0,0,2.5251,2.5348,2.5368,2.5406,2.5483,2.554,2.5618,2.5695,2.5735,2.5794,2.586,2.5961,2.5949,2.5994,2.601,2.6061,2.6146,2.6041,2.6043,2.6059,2.6265,2.6276,2.6292,2.6146,2.6149,2.6151,2.626,0,2.5354,2.5492,2.5517,2.5638,2.5707,2.5712,2.578,2.5834,2.5864,2.5927,2.596,2.6031,2.601,2.6037,2.6087,2.6125,2.6188,2.6117,2.6207,2.621,2.6192,2.6312,2.6323,2.6423,2.6274,2.6277,2.6279,0,2.5493,2.5557,2.5684,2.5751,2.5781,2.5841,2.5914,2.5973,2.6034,2.6053,2.6103,2.6113,2.6194,2.6155,2.6266,2.6217,2.6255,2.6279,2.6284,2.6294,2.625,2.6326,2.6456,2.6471,2.6302,2.63,2.6298,0,2.556,2.5677,2.5768,2.5801,2.5881,2.5923,2.5959,2.6017,2.6062,2.6125,2.6154,2.6225,2.6265,2.6319,2.6349,2.6318,2.6458,2.6421,2.6476,2.6475,2.6506,2.6504,2.6645,2.6529,2.6529,2.6528,2.6528,0,2.5673,2.5751,2.5799,2.5856,2.5943,2.5971,2.6056,2.6091,2.6142,2.6205,2.6214,2.6273,2.6308,2.6371,2.6394,2.6483,2.6501,2.6518,2.6523,2.6518,2.6516,2.6544,2.6538,2.6532,2.6532,2.6531,2.653,0,2.5762,2.5798,2.5898,2.5965,2.5984,2.6045,2.6103,2.6158,2.6188,2.6268,2.6288,2.6335,2.6411,2.6445,2.6538,2.6554,2.6655,2.6655,2.6635,2.6637,2.6689,2.6684,2.6854,2.6878,2.6746,2.6747,2.6748,0,2.5832,2.5892,2.5966,2.6009,2.6046,2.6115,2.616,2.619,2.6237,2.6311,2.6356,2.6432,2.6495,2.6615,2.6657,2.6728,2.6731,2.6785,2.6742,2.6734,2.6733,2.6729,2.6735,2.6794,2.6795,2.6796,2.6797,0,2.5954,2.5968,2.6033,2.6105,2.6159,2.6217,2.6274,2.6308,2.6346,2.6399,2.6476,2.6524,2.662,2.6695,2.6769,2.6805,2.6808,2.681,2.6827,2.6822,2.6808,2.6817,2.6657,2.6806,2.6805,2.6805,2.6804,2.6804,2.6036,2.609,2.615,2.6223,2.6268,2.6321,2.6376,2.6413,2.6478,2.6558,2.6571,2.6654,2.6713,2.6812,2.6851,2.6916,2.6903,2.6927,2.6933,2.6938,2.6942,2.6797,2.6929,2.6929,2.6929,2.6929,2.6928,0,2.6158,2.6197,2.6264,2.6343,2.64,2.6397,2.646,2.6507,2.658,2.6635,2.6696,2.6785,2.6858,2.6906,2.698,2.7022,2.7025,2.7041,2.7038,2.7047,2.6949,2.6928,2.7037,2.7037,2.7037,2.7037,2.7037,2.7037,2.6229,2.6319,2.6341,2.6454,2.6493,2.6574,2.661,2.6659,2.6703,2.6802,2.6863,2.6893,2.6946,2.7023,2.709,2.7102,2.7129,2.7145,2.7157,2.7065,2.7054,2.7043,2.7023,2.715,2.7151,2.7249,2.725,2.7251]}]]